Flag for Norway Weather past 2 weeks in Larvik, Norway

Now
43 °F

Quite cool.


Feels Like: 36 °F
Forecast: 42 / 53 °F
Wind: 13 mph from Southwest

Location: Torp

Current Time: May 23, 2015 at 5:36:56 AM

Latest Report: May 23, 2015 at 4:50 AM


Visibility: N/A

Pressure: 29.83 "Hg

Humidity: 81%

Dew point: 37 °F

Location of LarvikLocation

Historic Weather in Larvik — Graph

°F

Larvik temperature yesterday

Maximum temperature yesterday: 54 °F (at 3:50 PM)
Minimum temperature yesterday: 45 °F (at 12:20 AM)
Average temperature yesterday: 49 °F

Past Weeks' High & Low Weather Summary

 TemperatureHumidityPressure
High61 °F (May 13, 3:50 PM)100% (May 9, 11:50 PM)30.15 "Hg (May 9, 11:50 PM)
Low34 °F (May 9, 4:50 AM)29% (May 10, 5:50 PM)29.39 "Hg (May 19, 8:20 AM)
Average48 °F72%29.82 "Hg
* Reported May 8 4:20 AM — May 23 4:20 AM, Larvik, Weather by CustomWeather, © 2015

Note: Actual official high and low records may vary slightly from our data, if they occured in-between our weather recording intervals... More about our weather records

Advertising

Larvik weather history for previous 24 hours

 ConditionsComfort  
Time TempWeatherWind HumidityBarometerVisibility
4:20 AM
Sat, May 23
43 °FQuite cool.13 mph81%29.83 "HgN/A
3:50 AM43 °FQuite cool.15 mph76%29.83 "HgN/A
3:20 AM41 °FQuite cool.12 mph76%29.83 "HgN/A
2:50 AM39 °FChilly.9 mph81%29.83 "HgN/A
2:20 AM41 °FQuite cool.7 mph76%29.83 "HgN/A
1:50 AM43 °FQuite cool.10 mph66%29.83 "HgN/A
1:20 AM41 °FQuite cool.5 mph76%29.83 "HgN/A
12:50 AM43 °FQuite cool.7 mph71%29.83 "HgN/A
12:20 AM45 °FQuite cool.13 mph66%29.80 "HgN/A
11:50 PM
Fri, May 22
45 °FQuite cool.15 mph66%29.80 "HgN/A
10:50 PM46 °FSunny.14 mph76%29.77 "Hg10 mi
10:20 PM46 °FPassing clouds.15 mph82%29.77 "HgN/A
9:50 PM46 °FScattered clouds.14 mph87%29.77 "HgN/A
9:20 PM48 °FScattered clouds.9 mph87%29.77 "HgN/A
8:50 PM48 °FScattered clouds.8 mph87%29.77 "HgN/A
8:20 PM48 °FLight rain. Scattered clouds.9 mph82%29.77 "HgN/A
7:50 PM50 °FDrizzle. Partly sunny.8 mph82%29.77 "HgN/A
7:20 PM50 °FDrizzle. More clouds than sun.9 mph88%29.80 "HgN/A
6:50 PM50 °FLight rain. Cloudy.16 mph94%29.77 "Hg4 mi
6:20 PM52 °FPartly sunny.18 mph88%29.80 "HgN/A
5:50 PM52 °FMostly cloudy.21 mph88%29.80 "HgN/A
5:20 PM52 °FScattered showers. Broken clouds.20 mph88%29.80 "HgN/A
4:50 PM54 °FScattered showers. Broken clouds.21 mph82%29.80 "HgN/A
4:20 PM54 °FPartly sunny.23 mph82%29.83 "HgN/A
3:50 PM54 °FLow clouds.23 mph82%29.83 "HgN/A
3:20 PM52 °FLow clouds.21 mph88%29.86 "HgN/A
2:50 PM52 °FLow clouds.20 mph88%29.86 "HgN/A
2:20 PM50 °FLow clouds.18 mph94%29.89 "Hg6 mi
1:50 PM50 °FLow clouds.17 mph94%29.89 "HgN/A
1:20 PM50 °FPartly sunny.22 mph94%29.92 "HgN/A
12:50 PM52 °FDrizzle. Partly sunny.22 mph82%29.92 "HgN/A
12:20 PM50 °FPartly sunny.23 mph88%29.92 "HgN/A
11:50 AM52 °FPartly sunny.18 mph82%29.95 "HgN/A
11:20 AM50 °FPartly sunny.18 mph88%29.95 "HgN/A
10:50 AM50 °FBroken clouds.20 mph88%29.95 "HgN/A
10:20 AM50 °FDrizzle. Partly sunny.20 mph88%29.95 "HgN/A
9:50 AM50 °FScattered showers. Broken clouds.18 mph88%29.98 "HgN/A
9:20 AM50 °FBroken clouds.18 mph82%29.98 "HgN/A
8:50 AM50 °FBroken clouds.17 mph82%29.98 "HgN/A
8:20 AM50 °FBroken clouds.18 mph82%29.98 "HgN/A
7:50 AM48 °FScattered clouds.17 mph87%29.98 "HgN/A
7:20 AM48 °FScattered clouds.16 mph82%29.98 "HgN/A
6:50 AM48 °FScattered clouds.15 mph82%29.98 "HgN/A
6:20 AM48 °FSunny.16 mph82%29.98 "Hg10 mi
5:50 AM46 °FSunny.17 mph87%29.98 "Hg10 mi
5:20 AM46 °FPassing clouds.15 mph87%29.98 "HgN/A
Weather by CustomWeather, © 2015

See weather overviewHow to use our weather pages